Regional Weather Roundup
Issued by NWS Wakefield, VA

Home | Current Version | Previous Version | Graphics & Text | Print | Product List | Glossary On
Versions: 1 2 3 4 5 6 7 8 9 10 11 12 13 14 15 16 17 18 19 20 21 22 23 24 25 26 27 28 29 30 31 32 33 34 35 36 37 38 39 40 41 42 43 44 45 46 47 48 49 50
032
ASUS41 KAKQ 120015
RWRAKQ

REGIONAL WEATHER ROUNDUP
NATIONAL WEATHER SERVICE WAKEFIELD VA
700 PM EST THU FEB 11 2016

Note: "fair" indicates few or no clouds below 12,000 feet with no
significant weather and/or obstructions to visibility. * = Denotes
station may not report precipitation (e.g., rain,snow,etc.),
thunder or fog.

VAZ042-051-052>054-056-120100-
NORTHERN VIRGINIA

CITY           SKY/WX    TMP DP  RH WIND       PRES   REMARKS
WASH NATIONAL  FAIR      25   0  33 NW16G24   30.27R WCI  12
DULLES         FAIR      22   0  38 NW16      30.26R WCI   8
FORT BELVOIR   FAIR      24   0  34 NW15G22   30.26R WCI  12
QUANTICO       FAIR      27   0  31 N8G22     30.29R
FREDERICKSBRG* FAIR      27   2  35 NW8       30.26R
STAFFORD*      FAIR      24  -1  34 NW12      30.30R WCI  13
WARRENTON      FAIR      24   6  48 NW8       30.25R
CULPEPER*      FAIR      23   0  36 N5        30.27R
MANASSAS*      CLEAR     23   3  42 N10       30.27R WCI  12
LEESBURG*      FAIR      23   9  54 NW15      30.26R WCI  10
WINCHESTER     FAIR      21   3  45 NW7       30.23R
FRONT ROYAL*   FAIR      21   1  42 W3        30.23R
LURAY*         FAIR      21   0  39 NW12G17   30.24R WCI   9
$$

VAZ048-049-060>072-079>083-120100-
CENTRAL AND SOUTH CENTRAL VIRGINIA

CITY           SKY/WX    TMP DP  RH WIND       PRES   REMARKS
RICHMOND       FAIR      29   2  31 NW8       30.23R
CHESTERFIELD*  FAIR      30  -2  24 NW6       30.24R
PETERSBURG*    FAIR      30  -6  20 W3        30.24R
HANOVER        FAIR      28  -1  28 VRB5      30.25R
TAPPAHANNOCK*  FAIR      30   0  27 NW3       30.24R
QUINTON*       FAIR      29   2  31 W5        30.23R
CHARLOTTSVILLE FAIR      25  -1  32 NW5       30.23R
GORDONSVILLE*  FAIR      26   0  33 NW5       30.23R
ORANGE*        FAIR      27   1  33 NW8       30.26R
LOUISA*        FAIR      27   1  33 N3        30.22R
BUMPASS*       FAIR      27   1  32 N5        30.23R
FARMVILLE*     FAIR      30  -2  25 CALM      30.23R
CREWE*         FAIR      30   1  28 CALM      30.23R
FORT PICKETT*  NOT AVBL
CHASE CITY*    FAIR      29   0  27 CALM      30.23R
CLARKSVILLE*   FAIR      32   5  32 N3        30.22R
SOUTH HILL*    FAIR      28   5  36 CALM      30.28R
LAWRENCEVILLE* FAIR      30   1  29 CALM      30.23R
EMPORIA*       FAIR      27   9  46 CALM      30.26R
$$

VAZ088>098-120100-
SOUTHEAST VIRGINIA

CITY           SKY/WX    TMP DP  RH WIND       PRES   REMARKS
NORFOLK        FAIR      32   5  32 NW3       30.22R
VIRGINIA BEACH FAIR      33   6  32 NW3       30.22R
NORFOLK NAVAL  FAIR      32   8  36 NW10      30.24R WCI  24
WEST POINT*    FAIR      31   0  26 NW5       30.25R
SALUDA*        FAIR      31   2  29 NW8G16    30.23R
NEWPORT NEWS   FAIR      29   5  36 NW5       30.23R
LANGLEY AFB    FAIR      31   3  31 NW3       30.22R
FORT EUSTIS    FAIR      31   7  36 NW8       30.21R
WILLIAMSBURG*  FAIR      30  10  43 CALM      30.24R
HR EXEC AP*    FAIR      27   3  36 NW3       30.25R
FRANKLIN*      FAIR      30   4  33 W3        30.24R
US460-WAKEFLD  FAIR      28   7  41 CALM      30.24R
$$

VAZ020-022-025-037-045-120100-
WEST CENTRAL AND SOUTHWEST VIRGINIA

CITY           SKY/WX    TMP DP  RH WIND       PRES   REMARKS
STAUNTON*      FAIR      25   2  37 NW9       30.23R
WAYNESBORO*    FAIR      20  -2  37 NW7       30.19R
HOT SPRINGS VA FAIR      10   1  64 W15G24    29.99R WCI  -6
LYNCHBURG      FAIR      26  -1  31 NW8       30.22R
DANVILLE       FAIR      30   5  34 N3        30.22R
SOUTH BOSTON*  FAIR      30   0  27 CALM      30.23R
MARTINSVILLE   FAIR      27   1  32 NW3       30.23R
ROANOKE        FAIR      25   3  38 N14       30.23R WCI  13
BLACKSBURG     FAIR      24   5  44 NW8       30.18R
DUBLIN*        FAIR      26   5  41 NW8       30.17R
MARION*        FAIR      26   3  38 NW13G18   30.14R WCI  15
HILLSVILLE*    FAIR      24   3  41 W5        30.11R
RICHLANDS*     FAIR      22   2  41 NW5       30.14R
WISE*          FAIR      25   3  39 N5        30.16R
ABINGDON*      FAIR      30   6  36 NW3       30.17R
$$

MDZ021>025-VAZ099-100-120100-
SOUTHERN MARYLAND AND THE DELMARVA PENINSULA

CITY           SKY/WX    TMP DP  RH WIND       PRES   REMARKS
PATUXENT RIVER PTCLDY    27   2  34 NW17      30.24R WCI  14
BAY BRIDGE APT   N/A     27   1  33 NW16G23   30.25R WCI  14
LEONARDTOWN    CLEAR     27   1  33 NW7       30.25R
DOVER          CLEAR     24   4  43 W13       30.19R WCI  12
GEORGETOWN     CLEAR     25   1  35 NW5G21    30.22R
EASTON         CLEAR     25   5  42 NW10      30.27R WCI  15
CAMBRIDGE      PTCLDY    27   3  36 W16G23    30.24R WCI  14
SALISBURY      CLEAR     25   3  38 NW13      30.22R WCI  14
OCEAN CITY     CLEAR     25   3  38 NW10      30.22R WCI  15
WALLOPS ISLAND FAIR      27   4  37 NW12      30.23R WCI  17
ACCOMACK*      FAIR      28   9  43 NW10      30.22R WCI  19
$$

NCZ012>017-030>032-120100-
NORTH CENTRAL AND EASTERN NORTH CAROLINA

CITY           SKY/WX    TMP DP  RH WIND       PRES   REMARKS
ROANOKE RAPIDS FAIR      32   5  32 CALM      30.24R
RALEIGH        CLEAR     34  10  37 CALM      30.22R
ELIZABETH CITY CLEAR     30  11  45 W5        30.24R
AHOSKIE*       CLEAR     31   3  30 CALM      30.25R
EDENTON*       CLEAR     35  11  37 NW3       30.25R
CURRITUCK*     CLEAR     32  11  42 CALM      30.24R
KILL DEVIL HLS CLEAR     33  10  37 NW7       30.22R
MANTEO         CLEAR     34  13  41 NW7       30.24R
CAPE HATTERAS  CLEAR     37  13  37 NW8       30.24R
TARBORO*       FAIR      32  14  47 CALM      30.26R
GOLDSBORO      CLEAR     36  10  35 N5        30.22R
WASHINGTON     CLEAR     35   7  31 CALM      30.24R
GREENVILLE     CLEAR     34  10  37 CALM      30.25R
NEW BERN       CLEAR     32  16  51 CALM      30.25R
WILMINGTON     CLEAR     37  22  54 CALM      30.24R
$$

VAZ048-120100-
ELSEWHERE

CITY           SKY/WX    TMP DP  RH WIND       PRES   REMARKS
HARRISBURG PA  MOCLDY    22   7  52 W18G29    30.18R WCI   7
BALTIMORE      PTCLDY    22   0  38 W15G28    30.23R WCI   9
ANNAPOLIS      CLEAR     25   4  40 W9        30.25R
ANDREWS AFB    FAIR      24   0  35 NW17G29   30.23R WCI  10
PHILADELPHIA   PTCLDY    24  -2  32 W20G29    30.17R WCI  10
HENDERSON NC   CLEAR     29   5  35 CALM      30.22R
GREENSBORO     CLEAR     34  11  38 NW6       30.18R
ROCKY MOUNT    CLEAR     30  14  51 CALM      30.24R
$$

VAZ100-120100-
MARINE

STATION/POSITION TIME  TEMP    WIND        PRES    WAVE   SWELL
                       AIR SEA DIR/SP/G            HT/PER HT/PER
                 (UTC) (F)     (DEG/KT/KT) (MB)    (FT/S) (FT/S)
BRANDYWINE LGT   2300   25     320/ 25/ 41 1021.2R
CAPE MAY NJ      2300   26 37  300/ 23/ 31 1021.0R
LEWES DE         2300   27 38  300/ 26/ 31 1021.5R
15NM E FENWICK I 2350   28 43              1022.0R   5/ 6
OCEAN-CITY-INLET 2300   28 38  330/ 15/ 21 1021.0R
WACHAPREAGUE VA  2300   29 40  280/  2/  4 1022.0R
THOMAS POINT MD  0000   25 38  310/ 17/ 20 1024.8R
GOOSES REEF MD   0000   28 38  320/ 19/ 25 1024.8R   2/ 3
COVE POINT MD    2300   26     340/ 17/ 22 1023.2R
SOLOMONS ISLAND  2300   28 40  320/ 10/ 14   N/A
BISHOPS HEAD MD  2300   28 35  320/ 14/ 18 1021.6R
PINEY POINT MD   2300          350/ 19/ 23   N/A
POTOMAC MD       0000   29 39  340/ 17/ 21 1022.7R   1/ 2
CAMBRIDGE MD     2300   27 38  300/ 14/ 24 1022.0R
LEWISETTA VA     2300   31 39  340/ 11/ 17 1022.3R
RAPPAHANNOCK LGT 2300          300/ 16/ 21 1022.3R
STINGRAY PT      0000   33 41  310/ 14/ 17 1023.4R   1/ 2
YORK RVR RNG VA  2300   33     300/ 13/ 15 1021.6R
YORKTOWN VA      2300   33 42  290/  6/  8 1022.3R
JAMESTOWN VA     0000   33 42  310/ 12/ 14   N/A
DOMINION TERM VA 2300   35     300/ 13/ 16 1022.3R
KIPTOPEKE VA     2300      40  310/ 16/ 22   N/A
CHES BAY BRIDGE  2300   33 41  280/ 14/ 16 1022.1R
CAPE HENRY VA    2300   32     280/ 11/ 14   N/A
CHESAPEAKE LGHT  2300   33     300/ 17/ 20 1023.2R
WILLOUBY STN VA  2300   34     310/ 12/ 14 1023.1R
CAPE HENRY BUOY  2328      43                N/A     3/ 4
1ST LANDING BUOY 0000      41                N/A     2/ 3
CAPE CHARLES BUO 2356      42                N/A     2/ 4   2/11
OFFSHORE WE BUOY 2321      45                N/A     3/ 4   2/12
64NM E OF VA BCH 2350   35 48  300/ 19/ 23 1022.6R   5/ 6   2/ 9
DUCK PIER NC     2300   35     300/ 10/ 13 1022.2R
44100 DUCK FRF   2324      46                N/A     3/ 4
44056 DUCK FRF   2311      44                N/A     2/11
OREGON INLET NC  2300   34 41  290/  8/ 12 1022.9R
HATTERAS NC      2300   38 45  280/ 14/ 16 1022.4R
DIAMOND SHLS NC  2350   40 70  300/ 14/ 17 1023.7R   4/ 4   2/ 8
$$




USA.gov is the U.S. government's official web portal to all federal, state and local government web resources and services.